This is the latest recevied weather packets stored in our database for station/object W8DRH-13. If no packets are shown the sender has not sent any weather packets the latest 10 day(s).
| Time | Temp. | Humidity | Pressure | Rain* | Wind** | Luminosity | Snow |
|---|---|---|---|---|---|---|---|
| 1777896518 | 10.56° C | 72% | 1006.3 hPa | 0 mm | - | 42 W/m² | - |
| 1777896215 | 10.56° C | 72% | 1006.5 hPa | 0 mm | - | 41 W/m² | - |
| 1777895913 | 10.56° C | 73% | 1006.6 hPa | 0 mm | - | 41 W/m² | - |
| 1777895610 | 10.56° C | 73% | 1006.6 hPa | 0 mm | - | 40 W/m² | - |
| 1777895307 | 10° C | 73% | 1006.5 hPa | 0 mm | - | 46 W/m² | - |
| 1777895006 | 10° C | 73% | 1006.4 hPa | 0 mm | - | 48 W/m² | - |
| 1777894702 | 10° C | 74% | 1006.6 hPa | 0 mm | - | 45 W/m² | - |
| 1777894399 | 10° C | 74% | 1006.4 hPa | 0 mm | - | 41 W/m² | - |
| 1777894096 | 10° C | 74% | 1006.3 hPa | 0 mm | - | 37 W/m² | - |
| 1777893794 | 9.44° C | 74% | 1006.4 hPa | 0 mm | - | 32 W/m² | - |
| 1777893489 | 9.44° C | 74% | 1006.3 hPa | 0 mm | - | 27 W/m² | - |
| 1777893186 | 9.44° C | 75% | 1006.3 hPa | 0 mm | - | 25 W/m² | - |
| 1777892883 | 9.44° C | 75% | 1006.2 hPa | 0 mm | - | 22 W/m² | - |
| 1777892579 | 9.44° C | 75% | 1006.3 hPa | 0 mm | - | 19 W/m² | - |
| 1777892274 | 8.89° C | 75% | 1006.2 hPa | 0 mm | - | 16 W/m² | - |
| 1777891971 | 8.89° C | 75% | 1006.3 hPa | 0 mm | - | 13 W/m² | - |
| 1777891669 | 8.89° C | 76% | 1006.4 hPa | 0 mm | - | 10 W/m² | - |
| 1777891365 | 8.89° C | 75% | 1006.1 hPa | 0 mm | - | 8 W/m² | - |
| 1777891060 | 8.89° C | 75% | 1006.1 hPa | 0 mm | - | 5 W/m² | - |
| 1777890756 | 8.89° C | 75% | 1006.2 hPa | 0 mm | - | 3 W/m² | - |
| 1777890451 | 9.44° C | 75% | 1006.2 hPa | 0 mm | - | 1 W/m² | - |
| 1777890147 | 9.44° C | 75% | 1006.3 hPa | 0 mm | - | 0 W/m² | - |
| 1777889844 | 9.44° C | 75% | 1006.5 hPa | 0 mm | - | 0 W/m² | - |
| 1777889542 | 9.44° C | 75% | 1006.1 hPa | 0 mm | - | 0 W/m² | - |
| 1777889239 | 9.44° C | 75% | 1006.4 hPa | 0 mm | - | 0 W/m² | - |
* Rain latest hour (hover to see other rain measurements)
** Current wind speed in m/s (hover to see current wind gust speed)